カタログに戻る

BLOCK DM-SL R/B

運用中HEO
NORAD 28900·ROCKET BODY· XX

打ち上げ Nov 8, 2005 から Sea Launch Platform

Loading…

次のパス (今後24時間)

TLE

最新Source: Space-Track

元期: Sep 14, 2026, 17:44 UTC

1 28900U 05044B   26257.73918722  .00005793  00000-0  14557-2 0  9991
2 28900   2.9488  55.4434 6957596 149.5420 282.6029  2.69621181186975

AllMySatでBLOCK DM-SL R/Bをリアルタイム追跡

Download on the App Store